Wind_Speed
9 11 20 19 15 26 32 35 36 37 39 38 37 36 36 35 36 30 30 28 29 26 25 24 25 24 21 21 23 22 21 22 24 23 23 24 25 25 26 26 26 26 28
4 12 21 20 20 23 32 35 37 38 40 40 39 36 37 35 37 32 31 31 30 27 24 23 23 23 23 22 24 23 23 24 23 25 24 22 22 23 24 25 24 24 25
5 11 15 19 20 22 27 35 40 42 43 43 41 39 37 33 35 38 33 32 29 27 25 24 23 24 24 25 26 26 26 27 25 25 22 20 20 22 23 23 23 23 23
5 10 17 21 23 25 26 34 40 42 44 43 43 40 38 36 36 38 37 33 30 27 26 25 24 23 24 26 28 27 27 30 27 24 20 21 21 23 22 22 22 23 23
6 9 15 22 26 29 29 37 37 40 41 41 41 41 40 39 39 38 37 34 31 29 26 25 24 23 24 27 26 25 29 24 22 20 19 19 19 20 21 21 21 22 22
8 11 17 24 27 29 30 37 39 40 42 42 41 41 41 38 38 39 36 36 34 30 26 24 24 23 24 24 26 28 27 24 19 19 20 19 18 19 19 20 22 22 21
11 11 18 23 20 16 18 30 42 41 42 44 42 41 40 40 39 39 37 37 34 30 26 25 24 24 25 26 27 27 26 20 19 20 19 20 20 20 20 21 21 21 21
9 10 14 16 19 34 36 43 41 44 44 45 44 42 41 40 40 39 38 35 32 29 28 26 25 25 25 25 26 26 24 20 18 19 20 19 21 21 21 20 21 21 20
5 8 9 8 17 26 31 35 47 45 47 46 45 42 41 40 42 40 38 37 32 30 29 27 26 25 26 26 27 26 24 19 17 18 19 19 20 20 21 20 20 21 21
1 2 6 9 19 22 23 26 25 41 45 47 45 44 42 41 41 40 39 35 33 32 30 29 27 25 25 26 26 25 25 20 17 17 17 20 20 20 20 19 19 19 20
4 4 4 6 16 21 20 19 19 28 38 43 44 43 43 36 38 36 30 35 35 34 30 29 27 27 25 24 23 23 17 17 16 15 17 22 20 19 19 19 19 18 18
1 7 7 5 9 16 19 18 23 14 32 37 37 40 36 37 35 29 31 33 35 33 30 28 27 27 22 19 20 13 12 15 14 14 17 20 18 18 18 17 17 17 17
1 5 9 8 7 13 13 16 20 24 26 34 37 37 34 33 31 31 30 29 31 31 26 25 25 19 17 17 16 11 16 14 14 15 18 19 18 17 16 16 15 14 14
5 6 9 11 9 11 17 20 26 27 34 34 34 34 38 31 32 33 31 28 30 28 26 23 21 15 16 16 14 14 13 13 13 15 17 18 18 17 17 16 15 14 13
6 5 10 12 14 13 15 18 26 25 29 47 44 36 31 30 31 32 30 28 29 27 26 23 18 16 15 16 14 14 13 12 13 14 15 19 17 16 15 14 14 13 12
3 4 11 13 14 13 15 19 26 29 27 46 46 41 33 28 30 29 29 27 26 26 23 21 19 18 15 15 14 13 12 11 12 13 13 17 18 16 15 13 13 12 11
3 5 10 13 13 11 10 19 24 36 37 42 41 42 34 30 28 28 27 24 24 23 21 20 18 16 16 14 13 13 12 12 12 12 13 13 15 17 16 15 14 13 12
3 8 11 11 10 8 4 11 29 33 44 40 43 38 36 33 26 25 26 24 23 22 20 19 18 16 15 14 13 11 10 11 12 13 12 12 13 13 16 17 16 14 13
6 11 11 14 9 9 7 21 32 38 36 41 40 38 38 38 32 29 25 26 28 23 17 18 17 15 13 13 12 11 11 12 13 12 13 13 13 13 13 17 18 16 16
8 11 14 14 16 15 17 28 31 32 31 33 37 35 38 35 34 32 25 27 26 23 14 15 15 13 11 10 10 10 10 11 11 12 14 15 15 15 14 13 16 17 20
10 11 13 14 15 21 21 23 25 26 29 28 33 30 35 38 36 29 24 23 21 18 16 13 12 13 9 9 8 7 9 12 13 14 14 15 16 17 16 16 16 15 17
10 12 12 14 17 17 22 22 18 26 27 26 27 29 24 32 28 27 22 22 18 20 17 16 14 12 11 14 10 9 5 11 17 19 18 19 19 19 19 19 19 19 19
14 13 13 15 17 18 19 26 24 19 22 22 28 27 26 31 24 23 25 23 22 19 18 19 17 16 14 13 16 10 4 6 4 13 19 20 20 21 21 21 23 27 27
16 15 16 16 18 19 26 25 27 25 26 25 34 29 29 24 25 23 23 22 22 24 20 21 20 19 16 15 13 19 17 12 5 5 11 16 20 23 26 28 26 24 26
18 18 17 17 18 20 23 24 28 21 22 22 26 29 30 29 26 24 20 22 20 20 19 20 19 19 18 18 17 15 17 20 19 15 12 11 13 17 23 25 26 26 26
18 19 19 19 19 21 26 25 29 27 20 22 23 30 29 33 32 32 23 19 19 18 21 22 19 18 20 20 21 23 21 18 17 18 13 20 19 17 19 24 22 23 26
Wind_Direction
215 204 199 197 201 183 183 180 179 176 171 167 165 163 155 153 146 145 141 134 128 129 124 123 120 115 115 114 115 119 116 112 111 107 99 97 95 94 92 92 91 91 89
259 205 204 197 198 192 188 186 184 179 173 169 167 164 157 156 149 145 135 135 133 130 126 121 118 117 117 117 125 123 122 116 113 107 103 97 94 90 92 99 96 92 89
276 213 204 205 200 186 188 190 188 182 175 170 166 162 156 159 152 143 141 138 133 128 127 123 122 122 122 125 127 127 123 118 111 103 104 101 100 97 92 94 94 91 88
273 216 205 208 201 180 211 202 193 183 173 169 165 161 157 159 152 144 143 137 134 130 129 130 127 127 128 129 132 132 126 119 113 110 106 108 103 97 96 93 91 89 88
252 227 217 214 207 208 205 199 194 179 168 164 162 159 158 159 151 145 144 139 134 132 133 134 133 136 135 138 137 132 130 119 114 116 112 105 103 97 95 95 93 92 93
261 230 214 215 217 223 207 199 195 183 168 166 164 160 160 154 148 145 143 141 136 135 135 133 135 134 141 138 139 137 128 115 113 115 115 106 105 102 101 97 98 96 98
259 232 229 235 217 242 240 220 192 178 171 168 165 163 160 155 151 147 145 139 136 141 136 134 136 136 139 141 141 140 129 120 123 117 114 112 115 111 109 108 105 103 101
266 234 238 241 205 211 226 237 203 173 173 169 166 164 163 159 153 148 144 143 143 148 142 136 133 138 137 139 142 141 127 121 118 116 116 117 121 119 115 111 108 107 105
286 231 232 253 198 209 236 224 248 177 173 168 163 163 162 157 153 150 150 150 149 151 140 136 137 137 136 140 141 138 125 124 118 115 118 121 123 120 116 116 116 112 109
74 214 223 223 208 228 216 231 227 178 181 166 162 164 161 157 153 155 155 151 151 150 143 142 138 135 140 140 142 137 128 115 117 121 120 130 128 124 122 121 117 114 113
116 155 179 207 220 203 207 205 227 178 186 164 160 162 159 154 150 156 154 154 147 151 148 145 141 143 141 139 142 133 118 125 121 122 125 133 132 129 129 129 127 121 116
182 163 172 156 194 213 210 206 198 221 156 155 155 158 152 152 152 158 156 158 150 152 150 148 149 141 130 138 139 135 137 127 123 126 135 137 135 135 135 133 129 126 122
280 197 183 189 201 201 199 200 195 195 167 161 163 159 157 154 153 151 152 152 147 149 148 150 148 141 151 148 153 152 140 130 132 132 144 143 142 141 141 139 137 133 131
256 238 199 199 196 201 202 211 197 200 174 180 179 170 159 158 156 153 155 154 146 152 158 161 158 163 158 156 157 150 138 138 139 138 151 153 154 154 153 151 147 142 138
274 244 229 222 185 189 197 204 210 218 201 177 174 176 163 161 160 156 154 153 152 156 164 162 167 168 165 157 156 149 142 144 144 145 157 164 163 164 162 158 157 155 149
269 224 213 219 193 203 211 220 218 208 188 167 169 166 164 164 163 159 152 153 154 157 167 164 169 167 166 163 158 152 145 152 154 154 159 173 174 175 173 169 168 166 164
227 193 198 205 199 206 230 245 228 214 176 159 160 162 163 164 164 158 148 153 156 159 161 160 165 168 171 170 162 160 162 164 169 166 165 176 184 185 186 183 182 185 184
194 175 175 179 183 195 246 249 199 188 153 151 159 159 164 162 162 151 144 152 154 151 159 160 165 173 172 171 169 169 175 182 186 183 180 185 190 195 202 201 201 200 200
171 168 168 166 164 148 92 113 141 131 132 143 158 165 174 172 164 157 150 156 161 147 158 161 170 174 171 176 177 175 188 195 198 197 199 202 201 201 209 217 215 214 211
165 173 164 162 162 140 119 101 108 123 129 147 155 166 172 171 176 164 160 158 161 158 162 170 167 171 172 180 184 187 199 207 210 208 211 214 215 214 216 216 219 222 224
163 165 166 161 161 147 137 116 120 129 148 157 159 167 170 173 178 172 163 162 171 168 178 178 179 166 167 176 170 197 216 220 222 222 219 221 221 220 221 221 220 220 225
168 171 173 168 163 158 152 151 133 144 159 167 164 168 165 170 176 173 181 187 184 188 192 191 189 176 195 193 205 212 215 217 231 227 223 222 222 220 222 222 223 222 216
176 174 172 173 164 164 154 148 151 150 160 172 180 172 173 175 188 183 186 184 192 189 193 201 202 202 203 209 216 231 224 248 198 217 227 229 228 224 222 224 225 223 222
182 181 179 176 177 170 169 166 163 164 171 185 188 188 179 173 185 189 191 190 197 196 198 210 211 212 220 221 223 237 249 274 256 256 217 226 227 228 223 224 225 228 227
181 182 183 178 179 176 177 177 177 177 180 179 185 193 197 199 203 197 195 201 203 207 213 217 213 219 224 231 230 238 240 247 250 256 271 233 221 234 234 234 234 230 234
184 186 182 183 185 184 184 182 185 186 180 173 180 196 207 206 211 215 217 217 219 217 223 224 218 227 230 233 236 243 245 247 249 244 248 258 259 242 231 232 230 233 232
Height
763 766 766 769 773 774 774 775 778 780 783 786 791 795 795 800 799 807 808 812 815 820 823 827 827 828 831 834 835 836 837 839 838 841 843 845 845 846 847 847 849 848 849
764 766 765 768 771 773 774 777 778 781 783 785 789 796 798 803 799 806 810 814 817 821 826 829 831 830 834 837 837 839 840 841 843 844 846 848 849 851 850 850 852 852 853
765 766 767 770 771 774 779 776 776 777 779 782 788 795 798 807 805 799 812 816 820 823 828 830 832 834 835 837 839 842 842 844 845 847 849 851 853 853 854 855 856 856 857
767 767 768 768 770 772 778 780 778 778 779 784 787 793 797 806 809 805 810 816 823 826 829 833 835 838 838 839 842 845 846 847 848 850 853 855 857 856 858 858 859 858 861
766 767 768 767 768 769 766 774 783 782 781 786 791 795 800 806 806 808 811 817 825 828 832 835 836 840 839 841 845 848 848 850 851 851 856 858 860 861 861 862 862 862 864
765 766 764 765 768 769 772 774 772 780 780 784 792 797 801 808 810 807 814 819 824 830 834 837 840 840 842 843 847 851 852 854 853 855 859 859 861 864 865 865 865 866 869
763 763 762 763 767 767 774 773 768 775 780 783 791 797 804 805 809 809 816 820 824 831 835 837 839 841 844 846 849 851 854 855 856 856 859 860 863 867 867 868 868 870 871
760 762 760 763 766 765 766 765 753 765 780 785 789 798 804 805 810 814 818 823 826 832 835 839 841 845 847 849 851 854 857 858 859 859 861 864 866 869 869 872 872 873 874
759 758 759 761 765 767 761 764 763 771 782 785 788 798 805 807 809 816 819 822 827 833 837 841 846 847 848 852 854 856 859 860 861 862 865 868 870 872 871 874 875 875 875
759 759 759 760 759 761 759 761 752 769 779 783 787 798 803 809 812 817 821 823 828 835 838 842 845 849 853 854 856 858 860 860 863 866 868 870 873 873 874 877 879 879 878
758 759 759 758 757 761 766 765 755 765 779 783 789 799 804 811 816 823 826 826 828 836 840 843 847 852 855 857 860 861 861 862 864 867 869 873 874 875 877 877 879 880 882
758 760 761 760 760 761 768 769 768 754 767 784 792 801 807 812 815 823 827 829 829 836 842 846 851 853 857 860 862 864 865 864 866 869 873 875 877 879 879 881 883 883 883
756 759 760 761 761 762 763 765 768 774 781 787 794 801 807 814 817 822 828 833 831 837 845 850 854 856 860 861 864 864 864 865 868 870 874 877 880 881 882 883 885 886 887
756 757 759 760 762 762 765 768 772 777 779 789 797 801 806 813 817 820 826 831 831 839 846 850 854 858 860 861 864 865 865 867 869 872 876 879 880 881 881 883 884 887 888
755 756 757 759 761 764 767 770 772 776 779 785 794 803 807 813 816 820 823 828 832 837 846 849 854 859 861 861 863 864 866 869 871 873 877 879 880 883 883 884 886 886 888
755 755 756 758 760 763 765 768 770 774 774 782 791 799 806 813 817 820 822 828 832 837 845 849 854 857 861 863 863 865 867 870 873 874 876 879 881 883 884 885 887 887 887
755 754 755 757 759 762 762 762 765 768 773 779 789 797 805 811 816 819 820 827 833 838 844 848 854 858 860 863 863 865 868 869 872 874 875 878 879 880 883 883 884 886 887
753 754 754 756 758 760 760 754 756 762 762 776 787 796 803 809 815 817 820 829 834 837 844 847 853 858 859 860 863 865 868 870 873 873 875 878 879 880 882 883 884 885 886
753 753 754 756 759 760 759 752 755 757 766 775 787 794 806 809 813 817 822 827 832 836 844 847 852 855 857 860 862 864 867 869 871 873 874 876 877 878 880 879 882 883 884
752 754 756 758 759 760 761 758 760 765 770 780 788 798 804 808 815 818 823 828 833 837 844 848 851 854 857 860 862 864 867 869 870 870 872 874 875 876 877 878 879 881 881
751 754 756 758 761 761 764 765 769 774 781 787 794 800 804 809 814 820 825 829 833 835 844 847 851 853 857 860 863 865 866 866 867 868 868 870 870 872 873 873 875 876 877
750 753 756 758 760 763 764 770 774 778 785 790 795 802 808 811 816 821 825 831 834 839 841 846 849 852 856 857 858 858 858 862 862 862 862 862 864 865 866 868 871 871 872
749 752 754 757 760 763 768 771 777 783 788 793 797 801 806 811 818 821 825 828 833 836 839 843 848 851 852 855 855 855 853 852 850 855 857 858 860 861 861 863 862 861 863
746 750 753 756 760 763 766 772 776 779 785 790 793 798 803 809 816 820 823 826 831 832 836 841 845 847 848 849 853 854 854 854 849 849 851 853 854 854 854 854 856 858 858
743 748 752 755 758 762 765 770 775 780 784 790 795 798 801 805 810 815 820 824 826 830 834 839 841 842 844 846 847 850 851 851 850 848 842 844 848 850 850 850 850 850 850
741 745 749 753 757 760 765 769 773 778 783 788 793 795 797 802 807 810 816 820 824 826 832 835 835 838 840 841 843 844 843 842 842 843 842 838 839 839 843 844 843 842 842